COSMOS 2414

Last updated on Wed Jun 24 2026 00:03:38 GMT+0000 (Coordinated Universal Time)

1 28521U 05002A 26173.36685537 .00000024 00000+0 75110-5 0 9991 2 28521 82.9496 39.7282 0039155 316.2048 43.6011 13.87926750 84539
UTC large
Height (km)
Speed (km/s)
/
Latitude / Longitude
Inclination (degrees)
Orbital Period (minutes)
Azimuth
Elevation
Range (km)
Doppler Factor

Next 0 passes for location: London (51.5072 / 0.1276)

No passes found over London.
COSMOS 2414